Weather Roundup
Issued by NWS Corpus Christi, TX

Home | Current Version | Previous Version | Text Only | Print | Product List | Glossary On
Versions: 1 2 3 4 5 6 7 8 9 10 11 12 13 14 15 16 17 18 19 20 21 22 23 24 25 26 27 28 29 30 31 32 33 34 35 36 37 38 39 40 41 42 43 44 45 46 47 48 49 50
000
ASUS44 KCRP 301210
HRRCRP

SOUTH TEXAS REGIONAL WEATHER ROUNDUP
NATIONAL WEATHER SERVICE CORPUS CHRISTI TX
600 AM CST FRI JAN 30 2015


TXZ229>244-301300-
...CORPUS CHRISTI AREA OBSERVATIONS...

CITY           SKY/WX    TMP DP  RH WIND       PRES   REMARKS
CORPUS CHRISTI MOCLDY    59  46  62 N22       30.32R
NAS CORPUS CHR CLOUDY    58  49  72 NE18      30.32R
ROCKPORT       PTCLDY    56  45  66 N14       30.32R
KINGSVILLE NAS CLOUDY    59  53  80 N13       30.31S
ALICE          CLOUDY    59  44  57 NE14      30.32R
FALFURRIAS     CLOUDY    59  56  91 N9        30.30R
$$

...VICTORIA AREA OBSERVATIONS...

CITY           SKY/WX    TMP DP  RH WIND       PRES   REMARKS
VICTORIA       MOCLDY    53  41  63 N10       30.36R
BEEVILLE       CLOUDY    55  43  63 NE8       30.34R
PLEASANTON     CLOUDY    54  36  51 NE10G17   30.37R
SAN ANTONIO    CLOUDY    53  35  50 NE9       30.38R
$$

...LAREDO AREA OBSERVATIONS...

CITY           SKY/WX    TMP DP  RH WIND       PRES   REMARKS
LAREDO         CLOUDY    60  44  55 NE18      30.33R
COTULLA        CLOUDY    59  37  44 E14       30.34S
DEL RIO        CLOUDY    56  38  50 N5        30.34S
MCALLEN        CLOUDY    62  60  93 NE6       30.28R
HEBBRONVILLE   RAIN      55  55  98 NE9       30.32R
$$

...OTHER TEXAS OBSERVATIONS...

CITY           SKY/WX    TMP DP  RH WIND       PRES   REMARKS
BROWNSVILLE    MOCLDY    61  60  97 N5        30.27R FOG
HOUSTON        MOCLDY    50  39  66 N10       30.36R
COL. STATION   CLOUDY    48  34  58 N10       30.40R
AUSTIN         CLOUDY    49  34  56 N15       30.41R
WACO           MOCLDY    45  32  60 N13       30.43S
FORT WORTH     MOCLDY    42  31  64 N9        30.46S
WICHITA FALLS  CLOUDY    39  32  76 NE6       30.49S
LUBBOCK        CLOUDY    39  27  62 E8        30.42F
EL PASO        LGT RAIN  42  37  82 NE9       30.27F
$$

...MARINE OBSERVATIONS...

STATION/POSITION TIME  SKY/WX   TEMP    WIND        PRES    VSBY  WAVE   SWELL
                                AIR SEA DIR/SP/G                  HT/PER HT/PER
                 (UTC)          (F)     (DEG/KT/KT) (MB)    (MI)  (FT/S) (FT/S)
PORT ARANSAS     1200            57 61  360/ 16/ 18 1027.1R
BUOY 90 E PORT A 1200            64 66   30/ 19/ 23 1025.4F         2/ 3
BUOY 45 SE BAFFI 1200            67 67   20/  2/  4 1025.2R         1/ 5   2/ 5
BUOY 200 E PT IS 1200            70 72   70/  8/ 10 1024.4R         1/ 5   2/ 5
BUOY 15 E GALVES 1200            56 57   30/ 17/ 19 1026.1R         3/ 4
$$



USA.gov is the U.S. government's official web portal to all federal, state and local government web resources and services.